Weather History for Montrose, CO

Change the Weather History Date:

Tuesday, March 27, 2012

  Actual Average Record
Temperature  
Mean Temperature 49 °F 44 °F  
Max Temperature 67 °F 58 °F 72 °F (2007)
Min Temperature 31 °F 31 °F 15 °F (2009)
Degree Days  
Heating Degree Days 16 21  
Month to date heating degree days 578 658  
Since 1 July heating degree days 5155 5373  
Cooling Degree Days 0 0  
Month to date cooling degree days 0 0  
Year to date cooling degree days 0 0  
Moisture  
Dew Point 17 °F    
Average Humidity 36    
Maximum Humidity 56    
Minimum Humidity 15    
Precipitation  
Precipitation 0.00 in 0.04 in 0.08 in (1998)
Month to date precipitation 0.20 0.87  
Year to date precipitation 1.17 2.10  
Sea Level Pressure  
Sea Level Pressure 29.98 in    
Wind  
Wind Speed 6 mph (South)    
Max Wind Speed 16 mph    
Max Gust Speed 21 mph    
Visibility 10 miles    
Events      
T = Trace of Precipitation, MM = Missing Value Source: NWS Daily Summary

Daily Weather History Graph

Daily Weather History Graph

Search for Another Location

Airport:

Trip Planner

Search our weather history database for the weather conditions in past years. The results will help you decide how hot, cold, wet, or windy it might be!

Date:

Astronomy

Mar. 27, 2012 Rise Set
Actual Time 7:03 AM MDT 7:30 PM MDT
Civil Twilight 6:36 AM MDT 7:57 PM MDT
Nautical Twilight 6:05 AM MDT 8:28 PM MDT
Astronomical Twilight 5:33 AM MDT 9:00 PM MDT
Moon 9:39 AM MDT (3/27) No Moon Set
Length of Visible Light 13h 20m
Length of Day
12h 27m
Waxing Crescent, 22% of the Moon is Illuminated
Mar 27
Waxing Crescent
Mar 30
First Quarter
Apr 6
Full
Apr 13
Last Quarter
Apr 21
New

Hourly Weather History & Observations

Time (MDT) Temp. Windchill Dew Point Humidity Pressure Visibility Wind Dir Wind Speed Gust Speed Precip Events Conditions
12:53 AM 37.9 °F 32.7 °F 16.0 °F 41% 29.95 in 10.0 mi SE 6.9 mph - N/A   Clear
1:53 AM 37.0 °F 34.5 °F 17.1 °F 44% 29.96 in 10.0 mi SSE 3.5 mph - N/A   Clear
2:53 AM 35.1 °F 29.3 °F 17.1 °F 48% 29.98 in 10.0 mi SSE 6.9 mph - N/A   Clear
3:53 AM 35.1 °F 28.6 °F 17.1 °F 48% 29.98 in 10.0 mi SE 8.1 mph - N/A   Clear
4:53 AM 34.0 °F - 17.1 °F 50% 30.00 in 10.0 mi Calm Calm - N/A   Clear
5:53 AM 32.0 °F 24.8 °F 18.0 °F 56% 30.01 in 10.0 mi SSE 8.1 mph - N/A   Clear
6:53 AM 34.0 °F 29.8 °F 19.0 °F 54% 30.02 in 10.0 mi South 4.6 mph - N/A   Clear
7:53 AM 34.0 °F - 19.0 °F 54% 30.05 in 10.0 mi Calm Calm - N/A   Clear
8:53 AM 42.1 °F - 19.0 °F 40% 30.04 in 10.0 mi Calm Calm - N/A   Clear
9:53 AM 46.9 °F - 19.0 °F 33% 30.04 in 10.0 mi Calm Calm - N/A   Clear
10:53 AM 52.0 °F - 18.0 °F 26% 30.03 in 10.0 mi NNW 8.1 mph - N/A   Clear
11:53 AM 57.0 °F - 17.1 °F 21% 30.03 in 10.0 mi Variable 6.9 mph - N/A   Clear
12:53 PM 59.0 °F - 17.1 °F 20% 30.00 in 10.0 mi North 5.8 mph - N/A   Clear
1:53 PM 63.0 °F - 16.0 °F 16% 29.97 in 10.0 mi Variable 5.8 mph - N/A   Clear
2:53 PM 62.1 °F - 16.0 °F 17% 29.95 in 10.0 mi Variable 5.8 mph - N/A   Clear
3:53 PM 64.0 °F - 17.1 °F 16% 29.93 in 10.0 mi WNW 6.9 mph - N/A   Clear
4:53 PM 66.0 °F - 17.1 °F 15% 29.91 in 10.0 mi North 6.9 mph - N/A   Clear
5:53 PM 64.9 °F - 17.1 °F 16% 29.91 in 10.0 mi NW 4.6 mph - N/A   Clear
6:18 PM 66.2 °F - 15.8 °F 14% 30.02 in 10.0 mi WSW 11.5 mph - N/A   Clear
6:53 PM 64.9 °F - 15.1 °F 15% 29.91 in 10.0 mi WSW 12.7 mph - N/A   Clear
7:53 PM 60.1 °F - 14.0 °F 16% 29.95 in 10.0 mi WSW 6.9 mph - N/A   Clear
8:53 PM 55.0 °F - 14.0 °F 20% 29.95 in 10.0 mi South 4.6 mph - N/A   Clear
9:53 PM 46.9 °F - 18.0 °F 32% 29.99 in 10.0 mi SE 5.8 mph - N/A   Clear
10:53 PM 46.9 °F - 18.0 °F 32% 29.98 in 10.0 mi ESE 9.2 mph - N/A   Clear
11:53 PM 46.9 °F - 18.0 °F 32% 29.97 in 10.0 mi SE 10.4 mph - N/A   Clear